PVG004P EDDS-LEPA

Flight info

Callsign PVG004P
Flight time 1h 41m
Altitude 31000
Route ROTWE5B ROTWE Y126 TUBLO N850 NATOR DCT LUTIX DCT BENOT/N0481F410 DCT NEMOS DCT GEVEA DCT INCUS DCT BALSI DCT RETNO DCT TUPOX DCT MTG DCT DIVKO DCT VATIR DCT PIVUS DCT BODEQ DCT VERSO L129 LUNIK
Aircraft B772/H-SDE2E3FGHIJ5LORVWXY/LB1D1

Departure

Time 2026-05-05 13:39
Airport Stuttgart Airport (EDDS)

Arrival

Time 2026-05-05 15:20
Airport Palma de Mallorca Airport (LEPA)
Time Latitude Longitude Altitude Speed Heading
2026-05-05 13:02 48.68852 9.19215 1320 ft 0 kts 343°
2026-05-05 13:27 48.68846 9.19217 1320 ft 2 kts 344°
2026-05-05 13:27 48.68831 9.19223 1319 ft 2 kts 352°
2026-05-05 13:28 48.68816 9.19224 1319 ft 2 kts
2026-05-05 13:28 48.68802 9.19220 1319 ft 2 kts 19°
2026-05-05 13:28 48.68788 9.19211 1319 ft 2 kts 31°
2026-05-05 13:28 48.68776 9.19198 1319 ft 2 kts 43°
2026-05-05 13:29 48.68766 9.19181 1319 ft 2 kts 54°
2026-05-05 13:29 48.68758 9.19162 1319 ft 2 kts 54°
2026-05-05 13:29 48.68747 9.19147 1319 ft 2 kts 25°
2026-05-05 13:29 48.68733 9.19140 1319 ft 2 kts
2026-05-05 13:30 48.68718 9.19142 1319 ft 2 kts 341°
2026-05-05 13:30 48.68705 9.19150 1318 ft 2 kts 340°
2026-05-05 13:30 48.68692 9.19157 1318 ft 2 kts 342°
2026-05-05 13:30 48.68689 9.19158 1318 ft 0 kts 342°
2026-05-05 13:32 48.68697 9.19155 1318 ft 5 kts 344°
2026-05-05 13:32 48.68762 9.19191 1319 ft 15 kts 54°
2026-05-05 13:33 48.68804 9.19361 1316 ft 19 kts 74°
2026-05-05 13:33 48.68844 9.19561 1311 ft 21 kts 72°
2026-05-05 13:33 48.68882 9.19768 1305 ft 17 kts 76°
2026-05-05 13:33 48.68829 9.19909 1301 ft 18 kts 127°
2026-05-05 13:34 48.68841 9.20074 1297 ft 17 kts 68°
2026-05-05 13:34 48.68884 9.20272 1291 ft 21 kts 73°
2026-05-05 13:34 48.68928 9.20509 1283 ft 26 kts 75°
2026-05-05 13:34 48.68981 9.20793 1277 ft 28 kts 73°
2026-05-05 13:35 48.69039 9.21092 1267 ft 31 kts 73°
2026-05-05 13:35 48.69097 9.21401 1258 ft 30 kts 75°
2026-05-05 13:35 48.69161 9.21722 1248 ft 33 kts 76°
2026-05-05 13:35 48.69211 9.21995 1240 ft 27 kts 72°
2026-05-05 13:36 48.69265 9.22279 1234 ft 29 kts 74°
2026-05-05 13:36 48.69321 9.22579 1231 ft 29 kts 73°
2026-05-05 13:36 48.69379 9.22884 1226 ft 29 kts 73°
2026-05-05 13:36 48.69436 9.23181 1222 ft 30 kts 73°
2026-05-05 13:37 48.69496 9.23502 1213 ft 32 kts 73°
2026-05-05 13:37 48.69551 9.23801 1204 ft 27 kts 75°
2026-05-05 13:37 48.69605 9.24089 1196 ft 28 kts 86°
2026-05-05 13:37 48.69531 9.24298 1191 ft 19 kts 148°
2026-05-05 13:38 48.69405 9.24318 1190 ft 13 kts 221°
2026-05-05 13:38 48.69374 9.24225 1191 ft 13 kts 252°
2026-05-05 13:38 48.69318 9.23931 1199 ft 60 kts 254°
2026-05-05 13:38 48.69147 9.23007 1223 ft 122 kts 254°
2026-05-05 13:39 48.68855 9.21546 1400 ft 157 kts 255°
2026-05-05 13:39 48.68603 9.19951 2051 ft 160 kts 258°
2026-05-05 13:39 48.68335 9.18352 2721 ft 160 kts 256°
2026-05-05 13:39 48.68034 9.16639 3038 ft 175 kts 256°
2026-05-05 13:40 48.67704 9.14785 3374 ft 193 kts 255°
2026-05-05 13:40 48.67345 9.12832 4033 ft 195 kts 255°
2026-05-05 13:40 48.66967 9.10811 4579 ft 205 kts 254°
2026-05-05 13:40 48.66571 9.08743 5207 ft 210 kts 253°
2026-05-05 13:41 48.66150 9.06566 5759 ft 220 kts 252°
2026-05-05 13:41 48.65715 9.04351 6371 ft 226 kts 252°
2026-05-05 13:41 48.65264 9.02062 7022 ft 230 kts 251°
2026-05-05 13:41 48.64787 8.99660 7388 ft 249 kts 251°
2026-05-05 13:42 48.64267 8.97063 7745 ft 267 kts 251°
2026-05-05 13:42 48.63723 8.94342 8290 ft 277 kts 251°
2026-05-05 13:42 48.63162 8.91534 8978 ft 281 kts 251°
2026-05-05 13:42 48.62599 8.88719 9692 ft 282 kts 251°
2026-05-05 13:43 48.61992 8.85876 10223 ft 289 kts 244°
2026-05-05 13:43 48.60915 8.83293 10458 ft 304 kts 229°
2026-05-05 13:43 48.59468 8.80830 10704 ft 322 kts 226°
2026-05-05 13:43 48.57945 8.78337 11379 ft 326 kts 225°
2026-05-05 13:44 48.56419 8.75835 12201 ft 327 kts 226°
2026-05-05 13:44 48.54877 8.73299 12956 ft 330 kts 226°
2026-05-05 13:44 48.53314 8.70728 13706 ft 334 kts 226°
2026-05-05 13:44 48.51874 8.68033 14519 ft 338 kts 236°
2026-05-05 13:45 48.50876 8.64784 15369 ft 344 kts 249°
2026-05-05 13:45 48.50205 8.61345 16093 ft 351 kts 252°
2026-05-05 13:45 48.49560 8.57794 16844 ft 356 kts 253°
2026-05-05 13:45 48.48908 8.54194 17656 ft 359 kts 252°
2026-05-05 13:46 48.48101 8.50667 18399 ft 360 kts 244°
2026-05-05 13:46 48.46874 8.47344 19121 ft 363 kts 233°
2026-05-05 13:46 48.45278 8.44429 19831 ft 366 kts 223°
2026-05-05 13:46 48.43351 8.41985 20556 ft 368 kts 213°
2026-05-05 13:47 48.41128 8.40079 21276 ft 370 kts 203°
2026-05-05 13:47 48.38697 8.38813 21998 ft 372 kts 193°
2026-05-05 13:47 48.36158 8.38018 22760 ft 374 kts 191°
2026-05-05 13:47 48.33615 8.37268 23512 ft 376 kts 191°
2026-05-05 13:48 48.31020 8.36482 24247 ft 379 kts 191°
2026-05-05 13:48 48.28433 8.35685 24890 ft 384 kts 191°
2026-05-05 13:48 48.25844 8.34882 25561 ft 387 kts 190°
2026-05-05 13:48 48.23183 8.34052 26252 ft 389 kts 190°
2026-05-05 13:49 48.20646 8.33259 26882 ft 391 kts 190°
2026-05-05 13:49 48.17989 8.32211 27447 ft 396 kts 197°
2026-05-05 13:49 48.15490 8.30586 27984 ft 401 kts 206°
2026-05-05 13:49 48.13069 8.28384 28546 ft 406 kts 210°
2026-05-05 13:50 48.10693 8.26076 29063 ft 410 kts 210°
2026-05-05 13:50 48.08330 8.23783 29624 ft 411 kts 210°
2026-05-05 13:50 48.05926 8.21456 30266 ft 411 kts 210°
2026-05-05 13:50 48.03522 8.19134 30790 ft 412 kts 210°
2026-05-05 13:51 47.98714 8.14504 30860 ft 407 kts 209°
2026-05-05 13:51 47.93926 8.09909 30852 ft 406 kts 210°
2026-05-05 13:52 47.89154 8.05341 30864 ft 406 kts 210°
2026-05-05 13:52 47.84400 8.00803 30871 ft 406 kts 210°
2026-05-05 13:53 47.79652 7.96280 30865 ft 405 kts 210°
2026-05-05 13:53 47.74931 7.91793 30877 ft 406 kts 210°
2026-05-05 13:54 47.70171 7.87278 30866 ft 405 kts 210°
2026-05-05 13:54 47.65420 7.82783 30870 ft 405 kts 210°
2026-05-05 13:55 47.60708 7.78334 30888 ft 404 kts 210°
2026-05-05 13:55 47.55952 7.73853 30887 ft 404 kts 210°
2026-05-05 13:56 47.51241 7.69424 30878 ft 404 kts 210°
2026-05-05 13:56 47.46494 7.64971 30894 ft 404 kts 210°
2026-05-05 13:57 47.41773 7.60551 30895 ft 403 kts 210°
2026-05-05 13:57 47.37034 7.56126 30890 ft 403 kts 211°
2026-05-05 13:58 47.32322 7.51733 30899 ft 402 kts 210°
2026-05-05 13:58 47.27576 7.47321 30902 ft 403 kts 211°
2026-05-05 13:59 47.20482 7.40740 30919 ft 402 kts 211°
2026-05-05 14:00 47.15963 7.35829 30896 ft 406 kts 223°
2026-05-05 14:00 47.14114 7.32721 30919 ft 406 kts 228°
2026-05-05 14:00 47.10593 7.26199 30917 ft 409 kts 229°
2026-05-05 14:01 47.07072 7.19695 30920 ft 407 kts 229°
2026-05-05 14:01 47.03525 7.13176 30929 ft 408 kts 229°
2026-05-05 14:02 46.99992 7.06702 30932 ft 408 kts 229°
2026-05-05 14:02 46.96427 7.00187 30905 ft 408 kts 229°
2026-05-05 14:03 46.92852 6.93673 30928 ft 421 kts 229°
2026-05-05 14:03 46.90859 6.90425 30900 ft 433 kts 222°
2026-05-05 14:03 46.88561 6.87501 30885 ft 445 kts 218°
2026-05-05 14:04 46.86118 6.84580 31012 ft 455 kts 218°
2026-05-05 14:04 46.83665 6.81660 31503 ft 455 kts 218°
2026-05-05 14:04 46.81244 6.78779 32279 ft 448 kts 218°
2026-05-05 14:04 46.78878 6.75966 33105 ft 439 kts 218°
2026-05-05 14:05 46.76538 6.73187 33757 ft 434 kts 218°
2026-05-05 14:05 46.74205 6.70420 34287 ft 431 kts 218°
2026-05-05 14:05 46.71886 6.67672 34702 ft 432 kts 219°
2026-05-05 14:05 46.69558 6.64917 35047 ft 433 kts 219°
2026-05-05 14:06 46.67221 6.62153 35369 ft 435 kts 219°
2026-05-05 14:06 46.64875 6.59383 35727 ft 435 kts 219°
2026-05-05 14:06 46.62528 6.56614 36107 ft 435 kts 219°
2026-05-05 14:06 46.60186 6.53855 36519 ft 435 kts 219°
2026-05-05 14:07 46.57839 6.51092 36865 ft 436 kts 219°
2026-05-05 14:07 46.55484 6.48323 37171 ft 438 kts 219°
2026-05-05 14:07 46.53113 6.45539 37517 ft 438 kts 219°
2026-05-05 14:07 46.50749 6.42766 37885 ft 438 kts 219°
2026-05-05 14:08 46.48396 6.40009 38208 ft 438 kts 219°
2026-05-05 14:08 46.46011 6.37218 38475 ft 439 kts 219°
2026-05-05 14:08 46.43624 6.34428 38695 ft 441 kts 218°
2026-05-05 14:08 46.41239 6.31644 38945 ft 442 kts 218°
2026-05-05 14:09 46.38855 6.28863 39214 ft 441 kts 218°
2026-05-05 14:09 46.36455 6.26068 39476 ft 441 kts 218°
2026-05-05 14:09 46.34079 6.23303 39678 ft 441 kts 218°
2026-05-05 14:09 46.31671 6.20504 39833 ft 443 kts 218°
2026-05-05 14:10 46.29317 6.17802 40006 ft 444 kts 216°
2026-05-05 14:10 46.26713 6.15406 40211 ft 444 kts 208°
2026-05-05 14:10 46.23906 6.13579 40392 ft 445 kts 201°
2026-05-05 14:10 46.20932 6.12339 40524 ft 448 kts 193°
2026-05-05 14:11 46.17816 6.11559 40672 ft 449 kts 191°
2026-05-05 14:11 46.14762 6.10869 40856 ft 450 kts 191°
2026-05-05 14:11 46.08559 6.09484 40914 ft 451 kts 190°
2026-05-05 14:12 46.02393 6.08114 40924 ft 448 kts 191°
2026-05-05 14:12 45.96200 6.06743 40916 ft 450 kts 191°
2026-05-05 14:13 45.90012 6.05377 40921 ft 450 kts 191°
2026-05-05 14:13 45.83842 6.04018 40923 ft 450 kts 191°
2026-05-05 14:14 45.77688 6.02657 40921 ft 449 kts 191°
2026-05-05 14:14 45.71512 6.01294 40918 ft 449 kts 191°
2026-05-05 14:15 45.65332 5.99933 40917 ft 448 kts 191°
2026-05-05 14:15 45.59179 5.98582 40923 ft 449 kts 191°
2026-05-05 14:16 45.52999 5.97228 40915 ft 448 kts 191°
2026-05-05 14:16 45.46861 5.95882 40915 ft 447 kts 192°
2026-05-05 14:17 45.40786 5.93999 40930 ft 448 kts 195°
2026-05-05 14:17 45.34714 5.92056 40928 ft 446 kts 195°
2026-05-05 14:18 45.28668 5.90147 40933 ft 447 kts 194°
2026-05-05 14:18 45.22590 5.88244 40935 ft 446 kts 194°
2026-05-05 14:19 45.16556 5.86366 40938 ft 445 kts 194°
2026-05-05 14:19 45.10487 5.84483 40934 ft 448 kts 194°
2026-05-05 14:20 45.04409 5.82604 40946 ft 446 kts 194°
2026-05-05 14:20 44.98370 5.80742 40934 ft 446 kts 194°
2026-05-05 14:21 44.92291 5.78871 40949 ft 446 kts 195°
2026-05-05 14:21 44.86237 5.77013 40963 ft 446 kts 195°
2026-05-05 14:22 44.80205 5.75166 40943 ft 444 kts 195°
2026-05-05 14:22 44.74169 5.73321 40942 ft 445 kts 195°
2026-05-05 14:23 44.68090 5.71467 40932 ft 444 kts 195°
2026-05-05 14:23 44.62063 5.69634 40927 ft 443 kts 195°
2026-05-05 14:24 44.56045 5.67806 40931 ft 445 kts 195°
2026-05-05 14:24 44.50015 5.65979 40923 ft 443 kts 195°
2026-05-05 14:25 44.43977 5.64153 40929 ft 443 kts 195°
2026-05-05 14:25 44.37966 5.62233 40927 ft 441 kts 200°
2026-05-05 14:26 44.32251 5.59218 40925 ft 439 kts 204°
2026-05-05 14:26 44.26556 5.56087 40929 ft 440 kts 204°
2026-05-05 14:27 44.20871 5.52973 40924 ft 438 kts 204°
2026-05-05 14:27 44.15189 5.49871 40930 ft 438 kts 204°
2026-05-05 14:28 44.09524 5.46786 40905 ft 437 kts 204°
2026-05-05 14:28 44.03871 5.43714 40920 ft 438 kts 204°
2026-05-05 14:29 43.98214 5.40647 40920 ft 437 kts 204°
2026-05-05 14:29 43.92532 5.37570 40908 ft 437 kts 204°
2026-05-05 14:30 43.86891 5.34521 40933 ft 437 kts 204°
2026-05-05 14:30 43.81211 5.31457 40924 ft 437 kts 204°
2026-05-05 14:31 43.75570 5.28419 40923 ft 437 kts 204°
2026-05-05 14:31 43.69878 5.25361 40926 ft 438 kts 204°
2026-05-05 14:32 43.64344 5.22394 40922 ft 436 kts 204°
2026-05-05 14:32 43.58673 5.19359 40932 ft 437 kts 204°
2026-05-05 14:33 43.53011 5.16335 40929 ft 436 kts 204°
2026-05-05 14:33 43.47360 5.13323 40937 ft 437 kts 204°
2026-05-05 14:34 43.41708 5.10318 40921 ft 436 kts 204°
2026-05-05 14:34 43.36356 5.06556 40922 ft 432 kts 216°
2026-05-05 14:35 43.31423 5.01905 40921 ft 431 kts 217°
2026-05-05 14:35 43.26511 4.97269 40905 ft 430 kts 217°
2026-05-05 14:36 43.21575 4.92626 40914 ft 432 kts 217°
2026-05-05 14:36 43.16630 4.87987 40917 ft 430 kts 217°
2026-05-05 14:37 43.11702 4.83375 40915 ft 430 kts 217°
2026-05-05 14:37 43.06765 4.78763 40917 ft 430 kts 217°
2026-05-05 14:38 43.01614 4.74636 40931 ft 433 kts 212°
2026-05-05 14:38 42.96361 4.70657 40931 ft 431 kts 212°
2026-05-05 14:39 42.91133 4.66702 40926 ft 430 kts 212°
2026-05-05 14:39 42.85927 4.62770 40930 ft 431 kts 212°
2026-05-05 14:40 42.80686 4.58818 40933 ft 430 kts 212°
2026-05-05 14:40 42.75446 4.54874 40933 ft 430 kts 212°
2026-05-05 14:41 42.70224 4.50951 40939 ft 430 kts 212°
2026-05-05 14:41 42.65010 4.47041 40928 ft 429 kts 212°
2026-05-05 14:42 42.59779 4.43126 40935 ft 429 kts 212°
2026-05-05 14:42 42.54581 4.39243 40929 ft 429 kts 212°
2026-05-05 14:43 42.49347 4.35342 40938 ft 428 kts 212°
2026-05-05 14:43 42.44134 4.31463 40940 ft 428 kts 212°
2026-05-05 14:44 42.38895 4.27572 40945 ft 428 kts 212°
2026-05-05 14:44 42.33683 4.23709 40948 ft 428 kts 212°
2026-05-05 14:45 42.28480 4.19859 40951 ft 428 kts 212°
2026-05-05 14:45 42.23294 4.16030 40951 ft 427 kts 212°
2026-05-05 14:46 42.18078 4.12186 40948 ft 426 kts 212°
2026-05-05 14:46 42.12879 4.08361 40963 ft 427 kts 212°
2026-05-05 14:47 42.07650 4.04523 40951 ft 426 kts 212°
2026-05-05 14:47 42.02466 4.00724 40948 ft 427 kts 212°
2026-05-05 14:48 41.97266 3.96921 40957 ft 427 kts 212°
2026-05-05 14:48 41.91862 3.93547 40933 ft 430 kts 202°
2026-05-05 14:49 41.85975 3.91867 40943 ft 438 kts 195°
2026-05-05 14:49 41.79972 3.90486 40962 ft 436 kts 195°
2026-05-05 14:50 41.74003 3.89114 40952 ft 434 kts 195°
2026-05-05 14:50 41.68044 3.87745 40958 ft 435 kts 195°
2026-05-05 14:51 41.62111 3.86384 40947 ft 434 kts 195°
2026-05-05 14:51 41.56143 3.85014 40956 ft 434 kts 195°
2026-05-05 14:52 41.53205 3.84342 40731 ft 428 kts 195°
2026-05-05 14:52 41.50277 3.83671 40103 ft 429 kts 195°
2026-05-05 14:52 41.47329 3.82994 39299 ft 432 kts 196°
2026-05-05 14:52 41.44390 3.82320 38447 ft 434 kts 196°
2026-05-05 14:53 41.41414 3.81640 37694 ft 432 kts 196°
2026-05-05 14:53 41.38477 3.80970 36952 ft 429 kts 196°
2026-05-05 14:53 41.35537 3.80300 36203 ft 426 kts 196°
2026-05-05 14:53 41.32634 3.79639 35637 ft 422 kts 196°
2026-05-05 14:54 41.29776 3.78988 34994 ft 420 kts 197°
2026-05-05 14:54 41.26911 3.78335 34263 ft 419 kts 197°
2026-05-05 14:54 41.24034 3.77681 33434 ft 418 kts 197°
2026-05-05 14:54 41.21202 3.77037 32654 ft 416 kts 197°
2026-05-05 14:55 41.18352 3.76390 31858 ft 413 kts 197°
2026-05-05 14:55 41.15572 3.75645 31082 ft 406 kts 201°
2026-05-05 14:55 41.12923 3.74485 30420 ft 396 kts 207°
2026-05-05 14:55 41.10347 3.73155 30012 ft 402 kts 207°
2026-05-05 14:56 41.07690 3.71774 29554 ft 413 kts 207°
2026-05-05 14:56 41.05038 3.70404 29039 ft 411 kts 207°
2026-05-05 14:56 41.02390 3.69041 28532 ft 406 kts 207°
2026-05-05 14:56 40.99761 3.67688 28007 ft 402 kts 206°
2026-05-05 14:57 40.97171 3.66357 27501 ft 398 kts 207°
2026-05-05 14:57 40.94609 3.65040 26995 ft 397 kts 206°
2026-05-05 14:57 40.92033 3.63717 26489 ft 397 kts 207°
2026-05-05 14:57 40.89492 3.62414 26001 ft 396 kts 206°
2026-05-05 14:58 40.86923 3.61099 25485 ft 390 kts 206°
2026-05-05 14:58 40.84425 3.59820 24829 ft 387 kts 206°
2026-05-05 14:58 40.81896 3.58526 24048 ft 387 kts 206°
2026-05-05 14:58 40.79402 3.57250 23312 ft 385 kts 206°
2026-05-05 14:59 40.77253 3.56152 22723 ft 383 kts 206°
2026-05-05 14:59 40.76845 3.55944 22613 ft 383 kts 206°
2026-05-05 14:59 40.75769 3.55395 22325 ft 381 kts 206°
2026-05-05 14:59 40.74618 3.54808 22032 ft 380 kts 206°
2026-05-05 15:00 40.72149 3.53549 21374 ft 377 kts 206°
2026-05-05 15:00 40.70544 3.52731 20923 ft 375 kts 206°
2026-05-05 15:00 40.67280 3.51191 19961 ft 376 kts 200°
2026-05-05 15:00 40.64708 3.50566 19370 ft 376 kts 191°
2026-05-05 15:01 40.62123 3.50337 18929 ft 370 kts 189°
2026-05-05 15:01 40.59581 3.50146 18506 ft 362 kts 189°
2026-05-05 15:01 40.57086 3.49960 18087 ft 356 kts 189°
2026-05-05 15:01 40.54638 3.49777 17664 ft 349 kts 188°
2026-05-05 15:02 40.52248 3.49598 17230 ft 343 kts 188°
2026-05-05 15:02 40.49899 3.49423 16817 ft 338 kts 188°
2026-05-05 15:02 40.47577 3.49249 16453 ft 331 kts 188°
2026-05-05 15:02 40.45285 3.49078 16136 ft 328 kts 188°
2026-05-05 15:03 40.42986 3.48904 15822 ft 331 kts 188°
2026-05-05 15:03 40.40679 3.48730 15518 ft 330 kts 188°
2026-05-05 15:03 40.38407 3.48559 15224 ft 328 kts 188°
2026-05-05 15:03 40.36131 3.48388 14905 ft 326 kts 188°
2026-05-05 15:04 40.33892 3.48220 14604 ft 325 kts 188°
2026-05-05 15:04 40.31644 3.48050 14303 ft 324 kts 188°
2026-05-05 15:04 40.29439 3.47499 13991 ft 317 kts 203°
2026-05-05 15:04 40.27451 3.46324 13668 ft 313 kts 209°
2026-05-05 15:05 40.23590 3.43750 12662 ft 312 kts 210°
2026-05-05 15:05 40.21658 3.42457 12190 ft 309 kts 209°
2026-05-05 15:05 40.19809 3.41221 11744 ft 307 kts 209°
2026-05-05 15:06 40.17941 3.39973 11609 ft 294 kts 209°
2026-05-05 15:06 40.16179 3.38799 11574 ft 280 kts 209°
2026-05-05 15:06 40.14475 3.37662 11393 ft 272 kts 209°
2026-05-05 15:06 40.12777 3.36529 11012 ft 271 kts 209°
2026-05-05 15:07 40.11103 3.35412 10615 ft 272 kts 209°
2026-05-05 15:07 40.09412 3.34285 10237 ft 271 kts 208°
2026-05-05 15:07 40.07756 3.33181 9894 ft 270 kts 208°
2026-05-05 15:07 40.06076 3.32062 9556 ft 268 kts 208°
2026-05-05 15:08 40.04444 3.30976 9420 ft 259 kts 208°
2026-05-05 15:08 40.02857 3.29921 9172 ft 256 kts 208°
2026-05-05 15:08 40.01271 3.28867 8842 ft 256 kts 208°
2026-05-05 15:08 39.99708 3.27828 8685 ft 252 kts 208°
2026-05-05 15:09 39.98124 3.26776 8555 ft 258 kts 208°
2026-05-05 15:09 39.96510 3.25704 8418 ft 257 kts 208°
2026-05-05 15:09 39.94925 3.24652 8299 ft 255 kts 208°
2026-05-05 15:09 39.93337 3.23599 8184 ft 256 kts 208°
2026-05-05 15:10 39.91736 3.22537 8064 ft 257 kts 208°
2026-05-05 15:10 39.90117 3.21465 7930 ft 257 kts 208°
2026-05-05 15:10 39.88510 3.20401 7807 ft 255 kts 208°
2026-05-05 15:10 39.86963 3.19377 7653 ft 248 kts 208°
2026-05-05 15:11 39.85430 3.18364 7420 ft 244 kts 208°
2026-05-05 15:11 39.83922 3.17367 7161 ft 242 kts 208°
2026-05-05 15:11 39.82433 3.16382 6901 ft 242 kts 208°
2026-05-05 15:11 39.80879 3.15356 6653 ft 250 kts 208°
2026-05-05 15:12 39.79369 3.14359 6561 ft 241 kts 208°
2026-05-05 15:12 39.77862 3.13365 6268 ft 241 kts 208°
2026-05-05 15:12 39.76383 3.12389 6084 ft 236 kts 208°
2026-05-05 15:12 39.74948 3.11443 5978 ft 228 kts 208°
2026-05-05 15:13 39.73559 3.10529 5898 ft 218 kts 208°
2026-05-05 15:13 39.72269 3.09598 5820 ft 209 kts 215°
2026-05-05 15:13 39.71178 3.08429 5761 ft 197 kts 225°
2026-05-05 15:13 39.70289 3.07117 5555 ft 191 kts 232°
2026-05-05 15:14 39.69526 3.05721 5310 ft 187 kts 236°
2026-05-05 15:14 39.68835 3.04323 5081 ft 182 kts 237°
2026-05-05 15:14 39.68168 3.02922 4845 ft 183 kts 237°
2026-05-05 15:14 39.67498 3.01498 4599 ft 186 kts 237°
2026-05-05 15:15 39.66830 3.00074 4345 ft 184 kts 237°
2026-05-05 15:15 39.66173 2.98673 4105 ft 183 kts 237°
2026-05-05 15:15 39.65512 2.97268 3860 ft 183 kts 237°
2026-05-05 15:15 39.64845 2.95849 3597 ft 182 kts 237°
2026-05-05 15:16 39.64194 2.94466 3369 ft 178 kts 237°
2026-05-05 15:16 39.63554 2.93108 3120 ft 175 kts 237°
2026-05-05 15:16 39.62928 2.91783 2875 ft 169 kts 237°
2026-05-05 15:16 39.62328 2.90511 2648 ft 164 kts 237°
2026-05-05 15:17 39.61737 2.89258 2427 ft 165 kts 237°
2026-05-05 15:17 39.61132 2.87978 2196 ft 166 kts 238°
2026-05-05 15:17 39.60551 2.86746 1983 ft 157 kts 238°
2026-05-05 15:17 39.59984 2.85544 1744 ft 153 kts 238°
2026-05-05 15:18 39.59455 2.84416 1591 ft 138 kts 238°
2026-05-05 15:18 39.58940 2.83321 1429 ft 139 kts 236°
2026-05-05 15:18 39.58405 2.82289 1350 ft 136 kts 237°
2026-05-05 15:18 39.57949 2.81270 1158 ft 132 kts 240°
2026-05-05 15:19 39.57496 2.80239 969 ft 131 kts 237°
2026-05-05 15:19 39.56995 2.79237 738 ft 133 kts 237°
2026-05-05 15:19 39.56512 2.78225 495 ft 131 kts 238°
2026-05-05 15:19 39.56051 2.77225 273 ft 127 kts 238°
2026-05-05 15:20 39.55593 2.76269 77 ft 125 kts 237°
2026-05-05 15:20 39.55189 2.75424 34 ft 81 kts 239°
2026-05-05 15:20 39.54963 2.74945 38 ft 49 kts 237°
2026-05-05 15:20 39.54839 2.74628 42 ft 32 kts 248°
2026-05-05 15:21 39.54805 2.74428 44 ft 18 kts 266°
2026-05-05 15:21 39.54801 2.74311 44 ft 6 kts 268°
2026-05-05 15:21 39.54798 2.74243 45 ft 8 kts 268°
2026-05-05 15:21 39.54814 2.74167 45 ft 10 kts 298°
2026-05-05 15:22 39.54876 2.74085 45 ft 15 kts 329°
2026-05-05 15:22 39.54938 2.74014 45 ft 7 kts 268°
2026-05-05 15:22 39.54948 2.73928 45 ft 12 kts 313°
2026-05-05 15:22 39.54979 2.73863 44 ft 3 kts 265°
2026-05-05 15:23 39.54961 2.73805 44 ft 7 kts 240°
2026-05-05 15:23 39.54951 2.73782 44 ft 1 kts 239°
2026-05-05 15:23 39.54950 2.73781 44 ft 0 kts 239°